カタログに戻る

STARLINK-2270

運用中通信VLEO
NORAD 48000·PAYLOAD·🇺🇸 United States

打ち上げ Mar 24, 2021 から Cape Canaveral Space Force Station

Loading…

次のパス (今後24時間)

TLE

最新Source: CelesTrak SupGP

元期: Sep 15, 2026, 01:44 UTC

1 48000C 21024Z   26258.07270833  .00030444  00000+0  52502-3 0  2583
2 48000  53.1239  67.1613 0003378 302.2105  64.4371 15.50409166    18

AllMySatでSTARLINK-2270をリアルタイム追跡

Download on the App Store